Location: Unspecified
(0.0000°N, 0.0000°E)
Time: 03:10:16
(UTC+00:00)

CZ-3B DEB - Pass Details

Date: 20 February 2026
Orbit: 716 x 41326 km, 26.5° (Epoch: 4 March)

Event Time Altitude Azimuth Distance (km) Brightness Sun altitude
Exits shadow 00:59:56 82° 165° (SSE) 11,804 ? -74.1°
Drops below altitude 10° 12:29:32 10° 62° (ENE) 4,017 ? 78.5°
Sets 12:31:15 0° 62° (ENE) 4,523 ? 78.4°
